Date String (YYYY-MM-DD hh:mm:ss) UTC,Instrument flags,Ambient pressure (hPa),Sample flow (lpm),Bypass flow (lpm),Sample temperature (°C),Ambient temperature (°C),ASC tube jacket temperature (°C),LED temperature (°C),Box temperature (°C),Sample RH (%),Span deviation,Mass concentration (μg/m³),Mass concentration (μg/m³),Mass concentration (μg/m³)
DateTimeUTC,F1_M11,P_M11,Q1_M11,Q2_M11,T1_M11,T2_M11,T3_M11,T4_M11,T5_M11,U1_M11,ZSPAN_M11,X2_M11,X0_M11,X1_M11
2023-05-27 22:00:00,,0824.9,5.00,0.00,29.4,25.9,00.0,37.7,30.8,28.0,0000.0,0005.41,0011.43,0004.56
2023-05-27 22:01:00,,0825.0,5.00,0.00,29.3,26.3,00.0,37.7,30.9,27.1,0000.0,0005.38,0011.14,0004.52
2023-05-27 22:02:00,,0825.0,5.00,0.00,29.3,26.7,00.0,37.7,31.0,27.2,0000.0,0005.34,0011.21,0004.49
2023-05-27 22:03:00,,0825.1,4.99,0.00,29.4,27.0,00.0,37.7,31.0,27.9,0000.0,0005.30,0011.29,0004.47
2023-05-27 22:04:00,,0825.2,4.99,0.00,29.4,27.3,00.0,37.7,31.1,27.4,0000.0,0005.29,0010.77,0004.45
2023-05-27 22:05:00,,0825.2,5.00,0.00,29.4,27.5,00.0,37.7,31.1,28.7,0000.0,0005.24,0010.42,0004.40
2023-05-27 22:06:00,,0825.3,5.00,0.00,29.4,27.7,00.0,37.7,31.1,28.3,0000.0,0005.20,0010.30,0004.37
2023-05-27 22:07:00,,0825.2,5.00,0.00,29.4,27.9,00.0,37.7,31.2,28.3,0000.0,0005.15,0010.24,0004.33
2023-05-27 22:08:00,,0825.3,4.99,0.00,29.5,28.1,00.0,37.8,31.2,28.2,0000.0,0005.12,0010.01,0004.31
2023-05-27 22:09:00,,0825.3,5.00,0.00,29.5,28.2,00.0,37.8,31.3,26.8,0000.0,0005.03,0009.86,0004.27
2023-05-27 22:10:00,,0825.3,5.00,0.00,29.5,28.3,00.0,37.8,31.3,26.3,0000.0,0004.98,0009.81,0004.25
2023-05-27 22:11:00,,0825.4,5.00,0.00,29.6,28.4,00.0,37.8,31.3,24.5,0000.0,0004.91,0009.99,0004.20
2023-05-27 22:12:00,,0825.4,5.01,0.00,29.6,28.4,00.0,37.9,31.4,24.6,0000.0,0004.85,0009.74,0004.15
2023-05-27 22:13:00,,0825.5,5.00,0.00,29.7,28.3,00.0,37.9,31.4,24.4,0000.0,0004.84,0009.62,0004.12
2023-05-27 22:14:00,,0825.5,4.99,0.00,29.6,26.7,00.0,37.8,31.2,24.8,0000.0,0004.80,0010.12,0004.08
2023-05-27 22:15:00,,0825.5,5.01,0.00,29.5,25.3,00.0,37.7,30.9,26.1,0000.0,0004.73,0010.01,0004.02
2023-05-27 22:16:00,,0825.5,5.00,0.00,29.5,25.1,00.0,37.7,30.8,26.7,0000.0,0004.70,0010.02,0003.98
2023-05-27 22:17:00,,0825.5,5.02,0.00,29.4,25.4,00.0,37.7,30.7,27.6,0000.0,0004.68,0009.95,0003.94
2023-05-27 22:18:00,,0825.5,5.00,0.00,29.3,25.7,00.0,37.7,30.8,27.0,0000.0,0004.69,0009.95,0003.93
2023-05-27 22:19:00,,0825.6,5.00,0.00,29.3,26.2,00.0,37.7,30.8,29.1,0000.0,0004.71,0010.14,0003.93
2023-05-27 22:20:00,,0825.5,5.01,0.00,29.3,26.6,00.0,37.7,30.9,32.2,0000.0,0004.78,0010.53,0003.96
2023-05-27 22:21:00,,0825.5,5.00,0.00,29.3,26.9,00.0,37.7,30.9,32.3,0000.0,0004.86,0010.67,0004.02
2023-05-27 22:22:00,,0825.5,5.00,0.00,29.3,27.2,00.0,37.7,31.0,32.3,0000.0,0004.94,0010.17,0004.09
2023-05-27 22:23:00,,0825.5,5.00,0.00,29.3,27.4,00.0,37.7,31.0,32.1,0000.0,0005.03,0010.31,0004.17
2023-05-27 22:24:00,,0825.5,5.00,0.00,29.4,27.6,00.0,37.7,31.1,31.9,0000.3,0005.09,0010.85,0004.26
2023-05-27 22:25:00,,0825.4,5.00,0.00,29.4,27.8,00.0,37.7,31.1,31.9,0001.2,0005.20,0010.69,0004.38
2023-05-27 22:26:00,,0825.4,5.00,0.00,29.4,27.9,00.0,37.7,31.1,32.7,0000.1,0005.36,0010.90,0004.51
2023-05-27 22:27:00,,0825.4,5.00,0.00,29.4,28.0,00.0,37.7,31.2,32.3,0000.1,0005.48,0011.07,0004.64
2023-05-27 22:28:00,,0825.4,4.99,0.00,29.5,28.1,00.0,37.7,31.2,31.6,0001.6,0005.59,0011.77,0004.74
2023-05-27 22:29:00,,0825.3,5.00,0.00,29.5,28.2,00.0,37.8,31.3,31.8,0001.8,0005.68,0012.40,0004.82
2023-05-27 22:30:00,,0825.3,5.00,0.00,29.5,28.3,00.0,37.8,31.3,30.9,0001.8,0005.74,0012.34,0004.88
2023-05-27 22:31:00,,0825.3,5.00,0.00,29.6,28.4,00.0,37.8,31.3,29.9,0001.7,0005.76,0011.99,0004.90
2023-05-27 22:32:00,,0825.2,5.00,0.00,29.6,28.5,00.0,37.8,31.4,27.9,0000.6,0005.76,0011.83,0004.87
2023-05-27 22:33:00,,0825.2,5.00,0.00,29.6,28.5,00.0,37.9,31.4,27.7,0000.0,0005.72,0011.76,0004.83
2023-05-27 22:34:00,,0825.1,4.99,0.00,29.7,28.1,00.0,37.9,31.4,27.7,0000.0,0005.68,0011.70,0004.80
2023-05-27 22:35:00,,0825.1,4.99,0.00,29.6,26.6,00.0,37.8,31.2,26.6,0000.0,0005.64,0011.16,0004.74
2023-05-27 22:36:00,,0825.0,5.02,0.00,29.6,26.0,00.0,37.7,31.1,27.0,0000.0,0005.54,0010.68,0004.63
2023-05-27 22:37:00,,0825.0,5.01,0.00,29.5,26.2,00.0,37.7,31.0,27.4,0000.3,0005.40,0010.38,0004.51
2023-05-27 22:38:00,,0824.9,4.99,0.00,29.5,26.4,00.0,37.8,31.0,29.0,0001.1,0005.30,0010.30,0004.42
2023-05-27 22:39:00,,0824.9,5.00,0.00,29.5,26.8,00.0,37.8,31.1,30.1,0000.0,0005.21,0009.69,0004.35
2023-05-27 22:40:00,,0824.9,5.01,0.00,29.5,27.1,00.0,37.8,31.1,28.5,0000.0,0005.14,0009.20,0004.29
2023-05-27 22:41:00,,0824.9,4.99,0.00,29.5,27.4,00.0,37.8,31.2,28.6,0000.0,0005.10,0009.19,0004.25
2023-05-27 22:42:00,,0824.9,4.99,0.00,29.5,27.6,00.0,37.8,31.2,27.8,0000.0,0005.04,0009.11,0004.21
2023-05-27 22:43:00,,0824.9,4.99,0.00,29.5,27.8,00.0,37.8,31.3,27.2,0000.0,0005.02,0009.10,0004.18
2023-05-27 22:44:00,,0824.9,5.00,0.00,29.6,28.0,00.0,37.9,31.3,27.3,0000.0,0004.99,0009.17,0004.15
2023-05-27 22:45:00,,0824.9,5.01,0.00,29.6,28.1,00.0,37.9,31.3,26.1,0000.0,0004.92,0009.67,0004.10
2023-05-27 22:46:00,,0824.9,5.00,0.00,29.6,28.3,00.0,37.9,31.4,25.0,0000.0,0004.89,0010.59,0004.07
2023-05-27 22:47:00,,0824.9,4.99,0.00,29.7,28.4,00.0,37.9,31.4,22.9,0000.0,0004.84,0010.75,0004.03
2023-05-27 22:48:00,,0824.9,4.99,0.00,29.7,28.5,00.0,37.9,31.4,22.5,0000.0,0004.85,0011.40,0003.99
2023-05-27 22:49:00,,0824.9,5.00,0.00,29.7,28.5,00.0,37.9,31.5,21.7,0000.0,0004.76,0011.23,0003.92
2023-05-27 22:50:00,,0824.9,4.99,0.00,29.7,27.3,00.0,37.9,31.3,21.1,0000.0,0004.68,0011.14,0003.85
2023-05-27 22:51:00,,0824.9,5.01,0.00,29.7,26.1,00.0,37.8,31.1,22.4,0000.0,0004.57,0010.98,0003.77
2023-05-27 22:52:00,,0824.9,5.01,0.00,29.6,26.1,00.0,37.8,31.0,21.9,0000.0,0004.48,0010.76,0003.69
2023-05-27 22:53:00,,0824.9,5.00,0.00,29.5,26.3,00.0,37.8,31.0,21.0,0000.0,0004.40,0010.75,0003.62
2023-05-27 22:54:00,,0824.9,4.99,0.00,29.5,26.7,00.0,37.8,31.1,21.2,0000.0,0004.29,0010.65,0003.54
2023-05-27 22:55:00,,0824.9,5.00,0.00,29.5,27.0,00.0,37.8,31.1,22.1,0000.0,0004.27,0011.19,0003.49
2023-05-27 22:56:00,,0824.9,5.00,0.00,29.5,27.3,00.0,37.8,31.2,20.4,0000.0,0004.22,0011.16,0003.43
2023-05-27 22:57:00,,0824.9,5.00,0.00,29.5,27.5,00.0,37.9,31.2,19.8,0000.0,0004.15,0010.22,0003.38
2023-05-27 22:58:00,,0824.9,5.00,0.00,29.6,27.8,00.0,37.9,31.3,20.7,0000.0,0004.11,0009.84,0003.34
2023-05-27 22:59:00,,0824.9,5.00,0.00,29.6,28.0,00.0,37.9,31.3,21.8,0000.0,0004.07,0009.28,0003.31
